Flag for Romania Weather past 2 weeks in Oradea, Romania

Now
72 °F

Sunny.


Feels Like: 71 °F
Forecast: 63 / 88 °F
Wind: 2 mph from North

Location: Oradea Airport

Current Time: Aug 1, 2014 at 9:53:23 AM

Latest Report: Aug 1, 2014 at 9:00 AM


Visibility: 10 mi

Pressure: 29.83 "Hg

Humidity: 83%

Dew point: 66 °F

Location of OradeaLocation

Historic Weather in Oradea — Graph

°F

Oradea temperature yesterday

Maximum temperature yesterday: 82 °F (at 1:30 PM)
Minimum temperature yesterday: 66 °F (at 5:00 AM)
Average temperature yesterday: 75 °F

Past Weeks' High & Low Weather Summary

 TemperatureHumidityPressure
High91 °F (Jul 21, 2:30 PM)100% (Jul 19, 6:00 AM)30.01 "Hg (Jul 19, 6:00 AM)
Low61 °F (Jul 19, 6:00 AM)25% (Jul 20, 6:30 PM)29.74 "Hg (Jul 23, 3:00 AM)
Average74 °F71%29.89 "Hg
* Reported Jul 17 8:00 AM — Aug 1 8:30 AM, Oradea, Weather by CustomWeather, © 2014

Note: Actual official high and low records may vary slightly from our data, if they occured in-between our weather recording intervals... More about our weather records

Advertising

Oradea weather history for previous 24 hours

 ConditionsComfort  
Time TempWeatherWind HumidityBarometerVisibility
8:30 AM
Aug 1
70 °FSunny.5 mph83%29.83 "Hg10 mi
8:00 AM68 °FPassing clouds.5 mph88%29.83 "HgN/A
7:30 AM66 °FSunny.5 mph94%29.83 "Hg10 mi
7:00 AM66 °FPassing clouds.5 mph88%29.83 "HgN/A
6:30 AM64 °FPassing clouds.5 mph94%29.83 "HgN/A
6:00 AM64 °FPassing clouds.5 mph94%29.83 "HgN/A
5:30 AM64 °FPassing clouds.5 mph94%29.83 "HgN/A
5:00 AM64 °FPassing clouds.2 mph94%29.83 "HgN/A
4:00 AM63 °FPassing clouds.5 mph100%29.86 "HgN/A
3:00 AM64 °FMild.2 mph94%29.83 "HgN/A
2:00 AM66 °FMild.5 mph88%29.83 "HgN/A
1:00 AM68 °FMild.9 mph88%29.83 "HgN/A
12:00 AM73 °FPassing clouds.5 mph83%29.80 "HgN/A
11:00 PM
Jul 31
72 °FPassing clouds.No wind88%29.80 "HgN/A
10:30 PM73 °FSprinkles. Overcast.2 mph89%29.80 "HgN/A
10:00 PM73 °FSprinkles. Passing clouds.No wind89%29.80 "HgN/A
9:30 PM73 °FLight rain. Passing clouds.2 mph89%29.80 "HgN/A
9:00 PM75 °FPassing clouds.5 mph83%29.80 "HgN/A
8:30 PM79 °FSunny.5 mph74%29.80 "Hg10 mi
8:00 PM81 °FSunny.5 mph70%29.80 "Hg10 mi
7:30 PM81 °FSunny.2 mph66%29.80 "Hg10 mi
7:00 PM81 °FPassing clouds.5 mph66%29.80 "HgN/A
6:30 PM81 °FSunny.2 mph66%29.80 "Hg10 mi
6:00 PM79 °FSunny.5 mph74%29.80 "Hg10 mi
5:30 PM79 °FSunny.2 mph74%29.80 "Hg10 mi
5:00 PM81 °FPassing clouds.5 mph66%29.80 "HgN/A
4:30 PM82 °FPassing clouds.7 mph62%29.80 "HgN/A
4:00 PM82 °FSunny.12 mph62%29.80 "Hg10 mi
3:00 PM82 °FPassing clouds.7 mph55%29.83 "HgN/A
2:30 PM82 °FSunny.5 mph55%29.83 "Hg10 mi
2:00 PM82 °FSunny.2 mph51%29.83 "Hg10 mi
1:30 PM82 °FPassing clouds.5 mph55%29.83 "HgN/A
12:30 PM81 °FPassing clouds.5 mph58%29.83 "HgN/A
12:00 PM79 °FPassing clouds.7 mph61%29.83 "HgN/A
11:30 AM77 °FPassing clouds.7 mph65%29.83 "HgN/A
10:30 AM75 °FPassing clouds.9 mph69%29.83 "HgN/A
10:00 AM72 °FSunny.9 mph78%29.83 "Hg10 mi
9:30 AM70 °FPassing clouds.7 mph83%29.83 "HgN/A
Weather by CustomWeather, © 2014

See weather overviewHow to use our weather pages